Weather History for Poplar Bluff, MO

Change the Weather History Date:

Thursday, May 15, 2014

  Actual Average Record
Temperature  
Mean Temperature 56 °F -  
Max Temperature 66 °F 79 °F 94 °F (1944)
Min Temperature 46 °F 53 °F 39 °F (1926)
Degree Days  
Heating Degree Days 9    
Growing Degree Days 6 (Base 50)    
Moisture  
Dew Point 44 °F    
Average Humidity 71    
Maximum Humidity 86    
Minimum Humidity 50    
Precipitation  
Precipitation 0.17 in - - ()
Sea Level Pressure  
Sea Level Pressure 30.07 in    
Wind  
Wind Speed 8 mph (West)    
Max Wind Speed 21 mph    
Max Gust Speed 40 mph    
Visibility 9 miles    
Events Rain , Thunderstorm    
Averages and records for this station are not official NWS values.
T = Trace of Precipitation, MM = Missing Value Source: NWS Daily Summary

Daily Weather History Graph

Daily Weather History Graph

Search for Another Location

Airport:

Trip Planner

Search our weather history database for the weather conditions in past years. The results will help you decide how hot, cold, wet, or windy it might be!

Date:

Astronomy

May. 15, 2014 Rise Set
Actual Time 5:53 AM CDT 8:02 PM CDT
Civil Twilight 5:24 AM CDT 8:30 PM CDT
Nautical Twilight 4:49 AM CDT 9:06 PM CDT
Astronomical Twilight 4:11 AM CDT 9:44 PM CDT
Moon 9:10 PM CDT (5/15) 6:40 AM CDT (5/15)
Length of Visible Light 15h 06m
Length of Day
14h 08m
Full, 99% of the Moon is Illuminated
May 15
Full
May 21
Last Quarter
May 28
New
Jun 5
First Quarter
Jun 12
Full

Hourly Weather History & Observations

Time (CDT) Temp. Dew Point Humidity Pressure Visibility Wind Dir Wind Speed Gust Speed Precip Events Conditions
12:53 AM 46.9 °F 41.0 °F 80% 30.07 in 10.0 mi NW 10.4 mph - N/A   Overcast
1:53 AM 46.9 °F 41.0 °F 80% 30.06 in 10.0 mi NW 6.9 mph - 0.00 in Rain Light Rain
2:53 AM 46.9 °F 41.0 °F 80% 30.06 in 10.0 mi NW 6.9 mph - 0.00 in   Overcast
3:53 AM 46.9 °F 41.0 °F 80% 30.07 in 10.0 mi WNW 8.1 mph - N/A   Overcast
4:53 AM 46.9 °F 41.0 °F 80% 30.08 in 10.0 mi West 5.8 mph - N/A   Overcast
5:53 AM 46.9 °F 39.9 °F 77% 30.10 in 10.0 mi West 5.8 mph - N/A   Overcast
6:53 AM 46.9 °F 41.0 °F 80% 30.11 in 6.0 mi Calm Calm - N/A   Haze
7:53 AM 50.0 °F 41.0 °F 71% 30.11 in 10.0 mi NW 5.8 mph - N/A   Clear
8:53 AM 54.0 °F 41.0 °F 62% 30.12 in 10.0 mi WNW 5.8 mph - N/A   Clear
9:53 AM 57.9 °F 42.1 °F 56% 30.12 in 10.0 mi Variable 4.6 mph - N/A   Clear
10:53 AM 60.1 °F 43.0 °F 53% 30.13 in 10.0 mi Variable 4.6 mph - N/A   Partly Cloudy
11:53 AM 62.1 °F 46.0 °F 56% 30.12 in 10.0 mi SW 10.4 mph - N/A   Partly Cloudy
12:53 PM 61.0 °F 45.0 °F 56% 30.11 in 10.0 mi South 12.7 mph - N/A   Mostly Cloudy
2:53 PM 64.9 °F 46.9 °F 52% 30.05 in 10.0 mi South 13.8 mph 23.0 mph N/A   Mostly Cloudy
3:53 PM 66.0 °F 46.9 °F 50% 30.01 in 10.0 mi SSW 13.8 mph - N/A   Partly Cloudy
4:23 PM 64.0 °F 46.0 °F 52% 30.02 in 10.0 mi SSW 12.7 mph 24.2 mph N/A Thunderstorm Scattered Clouds
4:30 PM 59.0 °F 43.0 °F 55% 30.07 in - WNW 20.7 mph 40.3 mph 0.00 in Rain , Thunderstorm Light Thunderstorms and Rain
4:39 PM 52.0 °F 44.1 °F 74% 30.07 in 1.8 mi West 11.5 mph 29.9 mph 0.05 in Rain , Thunderstorm Heavy Thunderstorms and Rain
4:48 PM 51.8 °F 44.6 °F 76% 30.06 in 1.8 mi WSW 6.9 mph 20.7 mph 0.13 in Rain , Thunderstorm Heavy Thunderstorms and Rain
4:53 PM 52.0 °F 44.1 °F 74% 30.04 in 2.0 mi NNE 4.6 mph - 0.14 in Rain , Thunderstorm Thunderstorms and Rain
5:01 PM 52.0 °F 46.0 °F 80% 30.01 in 6.0 mi ENE 11.5 mph - 0.02 in Rain , Thunderstorm Light Thunderstorms and Rain
5:16 PM 53.1 °F 46.0 °F 77% 30.05 in 10.0 mi South 11.5 mph - 0.02 in Thunderstorm Overcast
5:34 PM 53.1 °F 46.0 °F 77% 30.05 in 10.0 mi SSE 8.1 mph - 0.02 in   Overcast
5:53 PM 53.1 °F 46.0 °F 77% 30.06 in 10.0 mi Calm Calm - 0.02 in   Scattered Clouds
6:53 PM 55.0 °F 46.9 °F 74% 30.06 in 10.0 mi South 8.1 mph - N/A   Clear
7:33 PM 54.0 °F 46.0 °F 75% 30.06 in 10.0 mi Calm Calm - 0.00 in Rain , Thunderstorm Light Rain
7:48 PM 53.6 °F 46.4 °F 77% 30.06 in 10.0 mi West 6.9 mph - 0.00 in Rain Light Rain
7:53 PM 54.0 °F 46.0 °F 75% 30.06 in 6.0 mi Calm Calm - 0.00 in Rain Light Rain
8:53 PM 53.1 °F 48.0 °F 83% 30.08 in 10.0 mi NNW 4.6 mph - 0.01 in   Scattered Clouds
9:53 PM 52.0 °F 46.0 °F 80% 30.10 in 10.0 mi NW 6.9 mph - N/A   Mostly Cloudy
10:53 PM 51.1 °F 46.0 °F 83% 30.11 in 10.0 mi Calm Calm - N/A   Mostly Cloudy
11:53 PM 50.0 °F 46.0 °F 86% 30.11 in 10.0 mi Calm Calm - N/A   Partly Cloudy